Location: Newark
(43.6583°N, 1.6617°E)
Time: 07:40:04
(UTC+00:00)

Vanguard 2 Rocket - Pass Details

Date: 26 August 2019
Orbit: 554 x 3326 km, 32.9° (Epoch: 21 September)

Event Time Altitude Azimuth Distance (km) Brightness Sun altitude
Exits shadow 02:19:58 38° 198° (SSW) 2,847 8.9 -26.6°
Maximum altitude 02:23:55 47° 159° (SSE) 2,867 9.1 -26.1°
Drops below altitude 10° 02:40:13 10° 94° (E) 6,011 11.6 -24.1°
Sets 02:45:38 0° 90° (E) 7,223 12.2 -23.4°
